La Grande, OR

4:15 AM PDT on October 19, 2019 (GMT -0700)
La Grande-Union County

Weather History for KLGD - August, 2019

Change the Weather History Date:

Tuesday, August 13, 2019

  Actual Average Record
Temperature  
Mean Temperature 66 °F -  
Max Temperature 87 °F 84 °F 100 °F (2015)
Min Temperature 46 °F 49 °F 44 °F (1974)
Cooling Degree Days 2    
Growing Degree Days 16 (Base 50)    
Moisture  
Dew Point 47 °F    
Average Humidity 53    
Maximum Humidity 89    
Minimum Humidity 25    
Precipitation  
Precipitation 0.00 in - - ()
Sea Level Pressure  
Sea Level Pressure 30.53 in    
Wind  
Wind Speed 2 mph (NNW)    
Max Wind Speed 9 mph    
Max Gust Speed -    
Visibility 10 miles    
Events      
Averages and records for this station are not official NWS values.
T = Trace of Precipitation, MM = Missing Value Source: NWS Daily Summary

Daily Weather History Graph

Daily Weather History Graph

Search for Another Location

Airport or City:

Astronomy

Aug. 13, 2019 Rise Set
Actual Time 5:50 AM PDT 8:02 PM PDT
Civil Twilight 5:18 AM PDT 8:34 PM PDT
Nautical Twilight 4:37 AM PDT 9:14 PM PDT
Astronomical Twilight 3:53 AM PDT 9:59 PM PDT
Moon 7:25 PM PDT (8/13) 3:50 AM PDT (8/13)
Length of Visible Light 15h 16m
Length of Day
14h 11m
Waxing Gibbous, 97% of the Moon is Illuminated
Aug 13
Waxing Gibbous
Aug 15
Full
Aug 23
Last Quarter
Aug 30
New
Sep 5
First Quarter

Hourly Weather History & Observations

Time (PDT) Temp. Dew Point Humidity Pressure Visibility Wind Dir Wind Speed Gust Speed Precip Events Conditions
12:56 AM 57.0 °F 48.9 °F 74% 30.53 in 10.0 mi Calm Calm - N/A   Clear
1:56 AM 55.0 °F 48.0 °F 77% 30.53 in 10.0 mi Calm Calm - N/A   Clear
2:56 AM 52.0 °F 46.9 °F 83% 30.53 in 10.0 mi Calm Calm - N/A   Clear
3:56 AM 52.0 °F 46.9 °F 83% 30.54 in 10.0 mi East 4.6 mph - N/A   Clear
4:56 AM 51.1 °F 46.0 °F 83% 30.54 in 10.0 mi Calm Calm - N/A   Clear
5:56 AM 46.9 °F 43.0 °F 86% 30.56 in 10.0 mi Calm Calm - N/A   Clear
6:56 AM 50.0 °F 46.9 °F 89% 30.57 in 10.0 mi ESE 3.5 mph - N/A   Clear
7:56 AM 55.9 °F 48.0 °F 75% 30.58 in 10.0 mi Calm Calm - N/A   Clear
8:56 AM 61.0 °F 48.9 °F 64% 30.57 in 10.0 mi Calm Calm - N/A   Clear
9:56 AM 64.9 °F 50.0 °F 58% 30.57 in 10.0 mi Variable 3.5 mph - N/A   Clear
10:56 AM 69.1 °F 51.1 °F 53% 30.56 in 10.0 mi NNW 4.6 mph - N/A   Clear
11:56 AM 73.0 °F 51.1 °F 46% 30.55 in 10.0 mi West 3.5 mph - N/A   Clear
12:56 PM 78.1 °F 50.0 °F 37% 30.53 in 10.0 mi NW 3.5 mph - N/A   Clear
1:56 PM 82.0 °F 48.0 °F 30% 30.51 in 10.0 mi Variable 4.6 mph - N/A   Clear
2:56 PM 84.9 °F 48.0 °F 28% 30.49 in 10.0 mi Variable 3.5 mph - N/A   Clear
3:56 PM 86.0 °F 48.0 °F 27% 30.48 in 10.0 mi Variable 4.6 mph - N/A   Clear
4:56 PM 87.1 °F 46.9 °F 25% 30.47 in 10.0 mi ENE 4.6 mph - N/A   Clear
5:56 PM 86.0 °F 46.0 °F 25% 30.47 in 10.0 mi North 6.9 mph - N/A   Clear
7:56 PM 75.9 °F 46.9 °F 36% 30.49 in 10.0 mi North 5.8 mph - N/A   Mostly Cloudy
8:56 PM 75.0 °F 41.0 °F 29% 30.51 in 10.0 mi WNW 6.9 mph - N/A   Clear
9:56 PM 70.0 °F 43.0 °F 38% 30.52 in 10.0 mi NW 8.1 mph - N/A   Partly Cloudy
10:56 PM 70.0 °F 43.0 °F 38% 30.53 in 10.0 mi NW 9.2 mph - N/A   Overcast
11:56 PM 66.0 °F 44.1 °F 45% 30.52 in 10.0 mi NW 4.6 mph - N/A   Clear